Location: Heiligenberg
(48.5381°N, 7.3897°E)
Time: 01:34:23
(UTC+00:00)

Cosmos 1943 - Pass Details

Date: 26 May 2022
Orbit: 834 x 849 km, 71.0° (Epoch: 26 June)

Event Time Altitude Azimuth Distance (km) Brightness Sun altitude
Exits shadow 02:50:41 - 205° (SSW) 2,819 5.3 -6.9°
Reaches altitude 10° 02:51:36 10° 205° (SSW) 2,469 5.1 -6.8°
Maximum altitude 02:57:17 87° 118° (ESE) 856 3.3 -6.1°
Drops below altitude 10° 03:03:00 10° 29° (NNE) 2,480 7.0 -5.4°
Sets 03:05:28 0° 29° (NNE) 3,417 7.9 -5.1°
